LEMUR 2 AUSTINTACIOUS

Last updated on April 8, 2017, 12:15 a.m. UTC

1 42068U 98067LD  17096.95684029  .00022646  00000-0  32706-3 0  9997
2 42068  51.6430  33.1159 0009141  39.0589 321.1041 15.55818004  4847

Satellite is not in orbit.